TimeCDT,TemperatureF,Dew PointF,Humidity,Sea Level PressureIn,VisibilityMPH,Wind Direction,Wind SpeedMPH,Gust SpeedMPH,PrecipitationIn,Events,Conditions,WindDirDegrees,DateUTC
12:15 AM,48.2,-9999,N/A,29.80,3.0,NNE,23.0,31.1,N/A,Rain,Light Rain,30,2013-05-21 05:15:00
12:35 AM,48.2,-9999,N/A,29.81,1.8,NNE,17.3,27.6,0.01,Rain,Rain,30,2013-05-21 05:35:00
12:55 AM,46.4,-9999,N/A,29.81,2.0,NNE,16.1,26.5,0.06,,Overcast,30,2013-05-21 05:55:00
1:15 AM,46.4,-9999,N/A,29.82,3.0,NNE,16.1,25.3,N/A,Rain,Rain,30,2013-05-21 06:15:00
1:35 AM,46.4,-9999,N/A,29.82,3.0,NNE,18.4,25.3,0.04,Rain,Light Rain,20,2013-05-21 06:35:00
1:55 AM,44.6,-9999,N/A,29.82,4.0,NNE,16.1,19.6,0.05,Rain,Light Rain,20,2013-05-21 06:55:00
2:15 AM,44.6,-9999,N/A,29.82,3.0,NNE,17.3,-,0.01,Rain,Light Rain,20,2013-05-21 07:15:00
2:35 AM,44.6,-9999,N/A,29.83,6.0,NNE,17.3,21.9,0.02,Rain,Light Rain,30,2013-05-21 07:35:00
2:55 AM,44.6,-9999,N/A,29.83,1.5,NNE,17.3,21.9,0.04,,Overcast,20,2013-05-21 07:55:00
3:15 AM,44.6,-9999,N/A,29.84,1.2,NNE,12.7,23.0,0.02,,Overcast,30,2013-05-21 08:15:00
3:35 AM,44.6,-9999,N/A,29.84,2.0,NNE,13.8,20.7,0.05,,Overcast,20,2013-05-21 08:35:00
3:55 AM,44.6,-9999,N/A,29.84,10.0,NNE,15.0,19.6,0.05,,Overcast,20,2013-05-21 08:55:00
4:15 AM,44.6,-9999,N/A,29.85,10.0,NNE,17.3,23.0,N/A,,Overcast,30,2013-05-21 09:15:00
4:35 AM,44.6,-9999,N/A,29.85,6.0,NNE,13.8,20.7,N/A,,Haze,30,2013-05-21 09:35:00
4:55 AM,44.6,-9999,N/A,29.85,10.0,NNE,13.8,20.7,N/A,,Overcast,30,2013-05-21 09:55:00
5:15 AM,44.6,-9999,N/A,29.85,10.0,NNE,17.3,21.9,N/A,,Overcast,30,2013-05-21 10:15:00
5:35 AM,44.6,-9999,N/A,29.85,10.0,NNE,16.1,20.7,N/A,,Overcast,30,2013-05-21 10:35:00
5:55 AM,44.6,-9999,N/A,29.86,10.0,NNE,16.1,-,N/A,,Overcast,20,2013-05-21 10:55:00
6:15 AM,44.6,-9999,N/A,29.86,10.0,NNE,13.8,17.3,N/A,,Overcast,20,2013-05-21 11:15:00
6:35 AM,44.6,-9999,N/A,29.86,10.0,NNE,15.0,19.6,N/A,,Overcast,20,2013-05-21 11:35:00
6:55 AM,44.6,-9999,N/A,29.86,10.0,NNE,13.8,24.2,N/A,,Overcast,20,2013-05-21 11:55:00
7:15 AM,44.6,-9999,N/A,29.86,9.0,NNE,16.1,21.9,N/A,,Overcast,30,2013-05-21 12:15:00
7:35 AM,44.6,-9999,N/A,29.86,7.0,NNE,15.0,20.7,N/A,Rain,Light Rain,30,2013-05-21 12:35:00
7:55 AM,44.6,-9999,N/A,29.86,10.0,NNE,15.0,20.7,N/A,,Overcast,30,2013-05-21 12:55:00
8:15 AM,44.6,-9999,N/A,29.87,3.0,NNE,17.3,23.0,N/A,Rain,Light Rain,30,2013-05-21 13:15:00
8:35 AM,44.6,-9999,N/A,29.87,3.0,NNE,16.1,21.9,0.02,Rain,Light Rain,30,2013-05-21 13:35:00
8:55 AM,44.6,-9999,N/A,29.87,10.0,NE,16.1,23.0,0.02,,Overcast,40,2013-05-21 13:55:00
9:15 AM,44.6,-9999,N/A,29.87,4.0,NNE,16.1,21.9,N/A,Rain,Light Rain,30,2013-05-21 14:15:00
9:35 AM,44.6,-9999,N/A,29.87,2.5,NNE,13.8,-,N/A,,Overcast,30,2013-05-21 14:35:00
9:55 AM,44.6,-9999,N/A,29.87,2.0,NNE,16.1,21.9,0.01,Rain,Light Rain,30,2013-05-21 14:55:00
10:15 AM,46.4,-9999,N/A,29.87,5.0,NE,16.1,25.3,N/A,Rain,Light Rain,40,2013-05-21 15:15:00
10:35 AM,46.4,-9999,N/A,29.88,5.0,NNE,18.4,24.2,N/A,Rain,Light Rain,30,2013-05-21 15:35:00
10:55 AM,46.4,-9999,N/A,29.88,3.0,NE,13.8,-,0.01,Rain,Light Rain,40,2013-05-21 15:55:00
11:15 AM,46.4,-9999,N/A,29.89,4.0,NE,13.8,26.5,N/A,Rain,Light Rain,40,2013-05-21 16:15:00
11:35 AM,46.4,-9999,N/A,29.89,5.0,NNE,11.5,21.9,N/A,,Haze,30,2013-05-21 16:35:00
11:55 AM,46.4,-9999,N/A,29.89,5.0,NE,15.0,24.2,N/A,Rain,Light Rain,50,2013-05-21 16:55:00
12:15 PM,46.4,-9999,N/A,29.89,5.0,NNE,15.0,20.7,N/A,Rain,Light Rain,20,2013-05-21 17:15:00
12:35 PM,48.2,-9999,N/A,29.89,4.0,NE,13.8,24.2,N/A,Rain,Light Rain,50,2013-05-21 17:35:00
12:55 PM,48.2,-9999,N/A,29.89,4.0,NNE,10.4,-,N/A,Rain,Light Rain,30,2013-05-21 17:55:00
1:15 PM,50.0,-9999,N/A,29.89,10.0,NNE,11.5,-,N/A,,Overcast,20,2013-05-21 18:15:00
1:35 PM,50.0,-9999,N/A,29.89,10.0,NNE,10.4,16.1,N/A,,Overcast,20,2013-05-21 18:35:00
1:55 PM,50.0,-9999,N/A,29.89,4.0,NNE,8.1,-,N/A,,Haze,20,2013-05-21 18:55:00
2:15 PM,51.8,-9999,N/A,29.89,10.0,NNE,8.1,-,N/A,,Overcast,20,2013-05-21 19:15:00
2:35 PM,53.6,-9999,N/A,29.89,10.0,NE,9.2,-,N/A,,Overcast,50,2013-05-21 19:35:00
2:55 PM,53.6,-9999,N/A,29.89,10.0,ENE,9.2,-,N/A,,Overcast,60,2013-05-21 19:55:00
3:15 PM,55.4,-9999,N/A,29.89,10.0,ENE,11.5,16.1,N/A,,Overcast,60,2013-05-21 20:15:00
3:35 PM,55.4,-9999,N/A,29.90,8.0,ENE,18.4,-,N/A,,Overcast,60,2013-05-21 20:35:00
3:55 PM,55.4,-9999,N/A,29.91,10.0,ENE,18.4,32.2,N/A,,Overcast,60,2013-05-21 20:55:00
4:15 PM,55.4,-9999,N/A,29.91,10.0,ENE,18.4,29.9,N/A,,Overcast,70,2013-05-21 21:15:00
4:35 PM,53.6,-9999,N/A,29.91,10.0,ENE,17.3,23.0,N/A,Rain,Light Rain,70,2013-05-21 21:35:00
4:55 PM,53.6,-9999,N/A,29.92,10.0,ENE,9.2,-,N/A,Rain,Light Rain,60,2013-05-21 21:55:00
5:15 PM,53.6,-9999,N/A,29.92,7.0,ENE,6.9,-,N/A,Rain,Light Rain,60,2013-05-21 22:15:00
5:35 PM,55.4,-9999,N/A,29.92,10.0,ENE,4.6,-,N/A,,Overcast,60,2013-05-21 22:35:00
5:55 PM,55.4,-9999,N/A,29.92,6.0,NE,3.5,-,N/A,Rain,Light Rain,40,2013-05-21 22:55:00
6:15 PM,55.4,-9999,N/A,29.91,10.0,Calm,Calm,-,N/A,,Mostly Cloudy,0,2013-05-21 23:15:00
6:35 PM,55.4,-9999,N/A,29.91,10.0,Calm,Calm,-,N/A,,Mostly Cloudy,0,2013-05-21 23:35:00
6:55 PM,55.4,-9999,N/A,29.92,10.0,North,3.5,-,N/A,,Overcast,10,2013-05-21 23:55:00
7:15 PM,55.4,-9999,N/A,29.92,10.0,Calm,Calm,-,N/A,,Overcast,0,2013-05-22 00:15:00
7:35 PM,55.4,-9999,N/A,29.92,10.0,Calm,Calm,-,N/A,,Overcast,0,2013-05-22 00:35:00
7:55 PM,55.4,-9999,N/A,29.93,10.0,South,9.2,-,N/A,,Mostly Cloudy,180,2013-05-22 00:55:00
8:15 PM,53.6,-9999,N/A,29.93,10.0,South,9.2,-,N/A,,Mostly Cloudy,190,2013-05-22 01:15:00
8:35 PM,53.6,-9999,N/A,29.94,10.0,SW,3.5,-,N/A,,Overcast,230,2013-05-22 01:35:00
8:55 PM,53.6,-9999,N/A,29.95,10.0,West,4.6,-,N/A,,Mostly Cloudy,270,2013-05-22 01:55:00
9:15 PM,53.6,-9999,N/A,29.95,10.0,WNW,3.5,-,N/A,,Mostly Cloudy,290,2013-05-22 02:15:00
9:35 PM,53.6,-9999,N/A,29.96,10.0,West,3.5,-,N/A,,Mostly Cloudy,280,2013-05-22 02:35:00
9:55 PM,51.8,-9999,N/A,29.96,10.0,WNW,3.5,-,N/A,,Overcast,300,2013-05-22 02:55:00
10:15 PM,50.0,-9999,N/A,29.96,10.0,WNW,3.5,-,N/A,,Scattered Clouds,290,2013-05-22 03:15:00
10:35 PM,50.0,-9999,N/A,29.96,10.0,Calm,Calm,-,N/A,,Clear,0,2013-05-22 03:35:00
10:55 PM,50.0,-9999,N/A,29.96,10.0,Calm,Calm,-,N/A,,Clear,0,2013-05-22 03:55:00
11:35 PM,48.2,-9999,N/A,29.97,10.0,Calm,Calm,-,N/A,,Clear,0,2013-05-22 04:35:00
11:55 PM,46.4,-9999,N/A,29.97,7.0,Calm,Calm,-,N/A,,Clear,0,2013-05-22 04:55:00